When you browse on this site, cookies collect data to enhance your experience and personalize the content and advertising you see.
Visit our Privacy Policy to learn more. By continuing to use the site, you agree to this use of cookies and data.
  • Em Portugal
  • Lista de países
  • Para 7 dias
  • Temperatura da água
  • Mapas de satélite
  • Mapa do tempo
  • Widgets de tempo
  • user-avatar
    Iniciar Sessão

    Previsão horária em Otoka

    Hoje, 16 Janeiro, Quarta-feira

    Tempo Temperatura Precipitação Vento Pressão Humidade
    00:00 -1°C° 0.9 mm 8 m/s 732 mmHg 92%
    01:00 -1°C° 0 mm 6 m/s 732 mmHg 94%
    02:00 -1°C° 0.3 mm 7 m/s 732 mmHg 94%
    03:00 -1°C° 0.3 mm 8 m/s 732 mmHg 95%
    04:00 -1°C° 0.3 mm 9 m/s 732 mmHg 95%
    05:00 -1°C° 0.2 mm 8 m/s 733 mmHg 95%
    06:00 -1°C° 0.2 mm 7 m/s 734 mmHg 96%
    07:00 -1°C° 0.2 mm 7 m/s 734 mmHg 97%
    08:00 -1°C° 0.5 mm 6 m/s 735 mmHg 97%
    09:00 0°C° 0.5 mm 5 m/s 736 mmHg 98%
    10:00 0°C° 0.5 mm 5 m/s 736 mmHg 99%
    11:00 0°C° 0.3 mm 5 m/s 736 mmHg 99%
    12:00 0°C° 0.3 mm 4 m/s 737 mmHg 99%
    13:00 0°C° 0.3 mm 4 m/s 737 mmHg 99%
    14:00 0°C° 0.1 mm 4 m/s 737 mmHg 99%
    15:00 0°C° 0.1 mm 5 m/s 737 mmHg 98%
    16:00 0°C° 0.1 mm 5 m/s 738 mmHg 97%
    17:00 0°C° 0.1 mm 5 m/s 738 mmHg 96%
    18:00 0°C° 0.1 mm 4 m/s 738 mmHg 95%
    19:00 +1°C° 0.1 mm 3 m/s 738 mmHg 94%
    20:00 0°C° 0 mm 3 m/s 738 mmHg 93%
    21:00 0°C° 0 mm 3 m/s 738 mmHg 92%
    22:00 -1°C° 0 mm 3 m/s 738 mmHg 91%
    23:00 -1°C° 0 mm 4 m/s 738 mmHg 90%

    Amanhã, 17 Janeiro, Quinta-feira

    Tempo Temperatura Precipitação Vento Pressão Humidade
    00:00 -1°C° 0 mm 4 m/s 738 mmHg 90%
    01:00 -1°C° 0 mm 5 m/s 738 mmHg 90%
    02:00 -1°C° 0 mm 5 m/s 737 mmHg 89%
    03:00 -2°C° 0 mm 6 m/s 737 mmHg 88%
    04:00 -2°C° 0 mm 7 m/s 737 mmHg 87%
    05:00 -2°C° 0 mm 7 m/s 736 mmHg 86%
    06:00 -2°C° 0 mm 8 m/s 736 mmHg 84%
    07:00 -4°C° 0 mm 9 m/s 736 mmHg 83%
    08:00 -3°C° 0 mm 9 m/s 736 mmHg 82%
    09:00 -3°C° 0 mm 9 m/s 736 mmHg 82%
    10:00 -1°C° 0 mm 9 m/s 736 mmHg 82%
    11:00 -1°C° 0 mm 9 m/s 736 mmHg 84%
    12:00 -1°C° 0 mm 8 m/s 736 mmHg 85%
    13:00 -1°C° 0 mm 8 m/s 736 mmHg 87%
    14:00 -1°C° 0 mm 8 m/s 736 mmHg 87%
    15:00 -1°C° 0 mm 7 m/s 736 mmHg 86%
    16:00 -1°C° 0 mm 7 m/s 736 mmHg 86%
    17:00 -1°C° 0 mm 7 m/s 736 mmHg 86%
    18:00 -1°C° 0 mm 7 m/s 736 mmHg 86%
    19:00 -1°C° 0 mm 7 m/s 736 mmHg 86%
    20:00 -1°C° 0.1 mm 7 m/s 736 mmHg 86%
    21:00 -1°C° 0.1 mm 6 m/s 736 mmHg 86%
    22:00 -1°C° 0.1 mm 6 m/s 736 mmHg 87%
    23:00 -1°C° 0 mm 6 m/s 736 mmHg 86%

    Depois de amanhã, 18 Janeiro, Sexta-feira

    Tempo Temperatura Precipitação Vento Pressão Humidade
    00:00 0°C° 0 mm 5 m/s 736 mmHg 86%
    01:00 0°C° 0 mm 5 m/s 735 mmHg 85%
    02:00 0°C° 0.1 mm 5 m/s 736 mmHg 86%
    03:00 0°C° 0.1 mm 5 m/s 736 mmHg 87%
    04:00 0°C° 0.1 mm 5 m/s 736 mmHg 87%
    05:00 -2°C° 0 mm 6 m/s 737 mmHg 83%
    06:00 -2°C° 0 mm 6 m/s 737 mmHg 78%
    07:00 -2°C° 0 mm 7 m/s 738 mmHg 73%
    08:00 -3°C° 0 mm 7 m/s 738 mmHg 73%
    09:00 -4°C° 0 mm 8 m/s 739 mmHg 72%
    10:00 -4°C° 0 mm 8 m/s 739 mmHg 72%
    11:00 -4°C° 0.1 mm 8 m/s 740 mmHg 72%
    12:00 -2°C° 0.1 mm 8 m/s 740 mmHg 73%
    13:00 -2°C° 0.1 mm 8 m/s 741 mmHg 74%
    14:00 -3°C° 0 mm 7 m/s 742 mmHg 75%
    15:00 -3°C° 0 mm 6 m/s 743 mmHg 76%
    16:00 -2°C° 0 mm 5 m/s 743 mmHg 77%
    17:00 -2°C° 0 mm 5 m/s 744 mmHg 79%
    18:00 -2°C° 0 mm 5 m/s 745 mmHg 80%
    19:00 -2°C° 0 mm 5 m/s 745 mmHg 82%
    20:00 -3°C° 0 mm 4 m/s 746 mmHg 85%
    21:00 -2°C° 0 mm 3 m/s 746 mmHg 87%
    22:00 -4°C° 0 mm 3 m/s 747 mmHg 89%
    23:00 -4°C° 0 mm 3 m/s 747 mmHg 89%

    19 Janeiro, Sábado

    Tempo Temperatura Precipitação Vento Pressão Humidade
    00:00 -3°C° 0 mm 2 m/s 747 mmHg 90%
    01:00 -4°C° 0 mm 2 m/s 748 mmHg 90%
    02:00 -4°C° 0 mm 2 m/s 747 mmHg 90%
    03:00 -4°C° 0 mm 2 m/s 747 mmHg 90%
    04:00 -2°C° 0 mm 1 m/s 747 mmHg 89%
    05:00 -2°C° 0 mm 1 m/s 747 mmHg 88%
    06:00 -4°C° 0 mm 2 m/s 747 mmHg 87%
    07:00 -4°C° 0 mm 2 m/s 747 mmHg 86%
    08:00 -4°C° 0 mm 2 m/s 747 mmHg 84%
    09:00 -3°C° 0 mm 2 m/s 747 mmHg 81%
    10:00 -3°C° 0 mm 2 m/s 747 mmHg 78%
    11:00 -2°C° 0 mm 2 m/s 747 mmHg 77%
    12:00 -2°C° 0 mm 2 m/s 747 mmHg 76%
    13:00 +1°C° 0 mm 1 m/s 746 mmHg 75%
    14:00 0°C° 0 mm 1 m/s 746 mmHg 78%
    15:00 0°C° 0 mm 1 m/s 746 mmHg 81%
    16:00 -1°C° 0 mm 1 m/s 746 mmHg 84%
    17:00 -1°C° 0 mm 1 m/s 746 mmHg 84%
    18:00 -1°C° 0 mm 1 m/s 746 mmHg 85%
    19:00 -1°C° 0 mm 1 m/s 746 mmHg 85%
    20:00 -1°C° 0 mm 1 m/s 746 mmHg 85%
    21:00 -1°C° 0 mm 1 m/s 746 mmHg 85%
    22:00 -1°C° 0 mm 1 m/s 746 mmHg 85%
    23:00 -1°C° 0 mm 1 m/s 745 mmHg 85%

    20 Janeiro, Domingo

    Tempo Temperatura Precipitação Vento Pressão Humidade
    00:00 -2°C° 0 mm 1 m/s 745 mmHg 85%
    01:00 -2°C° 0 mm 1 m/s 745 mmHg 85%
    02:00 -2°C° 0 mm 1 m/s 745 mmHg 85%
    03:00 -2°C° 0 mm 1 m/s 744 mmHg 86%
    04:00 -2°C° 0 mm 1 m/s 744 mmHg 87%
    05:00 -2°C° 0 mm 1 m/s 744 mmHg 88%
    06:00 -3°C° 0 mm 1 m/s 744 mmHg 88%
    07:00 -3°C° 0 mm 1 m/s 744 mmHg 89%
    08:00 -2°C° 0 mm 1 m/s 745 mmHg 86%
    09:00 -2°C° 0 mm 1 m/s 745 mmHg 84%
    10:00 -1°C° 0 mm 1 m/s 745 mmHg 82%
    11:00 -1°C° 0 mm 1 m/s 745 mmHg 79%
    12:00 0°C° 0 mm 1 m/s 745 mmHg 76%
    13:00 -2°C° 0 mm 2 m/s 745 mmHg 73%
    14:00 -2°C° 0 mm 2 m/s 745 mmHg 75%
    15:00 -3°C° 0 mm 2 m/s 745 mmHg 77%
    16:00 -3°C° 0 mm 2 m/s 745 mmHg 79%
    17:00 -3°C° 0 mm 2 m/s 745 mmHg 80%
    18:00 -4°C° 0 mm 2 m/s 746 mmHg 81%
    19:00 -4°C° 0 mm 2 m/s 746 mmHg 82%
    20:00 -4°C° 0 mm 2 m/s 746 mmHg 83%
    21:00 -4°C° 0 mm 2 m/s 747 mmHg 85%
    22:00 -5°C° 0 mm 3 m/s 747 mmHg 86%
    23:00 -5°C° 0.1 mm 3 m/s 747 mmHg 87%

    21 Janeiro, Segunda-feira

    Tempo Temperatura Precipitação Vento Pressão Humidade
    00:00 -5°C° 0.1 mm 3 m/s 748 mmHg 89%
    01:00 -5°C° 0.1 mm 3 m/s 748 mmHg 90%
    02:00 -5°C° 0 mm 3 m/s 748 mmHg 91%
    03:00 -5°C° 0 mm 3 m/s 749 mmHg 92%
    04:00 -6°C° 0 mm 3 m/s 749 mmHg 93%
    05:00 -5°C° 0 mm 2 m/s 749 mmHg 93%
    06:00 -6°C° 0 mm 2 m/s 750 mmHg 92%
    07:00 -6°C° 0 mm 2 m/s 750 mmHg 92%
    08:00 -5°C° 0 mm 2 m/s 751 mmHg 89%
    09:00 -5°C° 0 mm 2 m/s 751 mmHg 87%
    10:00 -4°C° 0 mm 2 m/s 752 mmHg 84%
    11:00 -4°C° 0 mm 2 m/s 752 mmHg 81%
    12:00 -4°C° 0 mm 3 m/s 752 mmHg 78%
    13:00 -4°C° 0 mm 3 m/s 752 mmHg 75%
    14:00 -3°C° 0 mm 2 m/s 753 mmHg 77%
    15:00 -4°C° 0 mm 2 m/s 753 mmHg 78%
    16:00 -4°C° 0 mm 2 m/s 753 mmHg 80%
    17:00 -2°C° 0 mm 1 m/s 753 mmHg 81%
    18:00 -3°C° 0 mm 1 m/s 754 mmHg 82%
    19:00 -3°C° 0 mm 1 m/s 754 mmHg 83%
    20:00 -3°C° 0 mm 1 m/s 754 mmHg 84%
    21:00 -3°C° 0 mm 1 m/s 754 mmHg 84%
    22:00 -4°C° 0 mm 1 m/s 754 mmHg 85%
    23:00 -4°C° 0 mm 1 m/s 754 mmHg 86%
    Mostrar mais